DEORBITSAIL (40719 NORAD) Tracking and Keplerian Element Data

This shows tracking and keplerian element data for the satellite.

Feedback or suggestion? Click here.




ElementValue
Catalog40719
NameDEORBITSAIL
Epoch Orbit28483
Epoch Day296.38524285
Epoch Year2020
RAAN181.7884
Inclination97.8522
Eccentricity0.0016601
Argument of Perigee153.097
Mean Anonmoly207.1105
Mean Motion14.77096898
Decay Rate4.61E-06
L11 40719U 15032E 20296.38524285 .00000461 00000-0 72270-4 0 9991
L22 40719 097.8522 181.7884 0016601 153.0970 207.1105 14.77096898284832

Live tracking and technical data element details for DEORBITSAIL (NORAD 40719). DEORBITSAIL can be tracked NOW for your location showing map with azimuth and elevation plus other details from your city location.

Track the satellite on the map from your city or location and see movement details for azimuth, elevation, latitude, longitude, range, height, and movement on the map or in text.







IsCatalogInMostPopularTable: catalog: 40719, numindb: 312
Update: records affected: 1



GetName: 40719 DEORBITSAIL

Hit Count: updated at: Sun, 25 Oct 2020 07:31:25 GMT